Change the Weather History Date:

Saturday, August 17, 2013

  Actual Average Record
Temperature  
Mean Temperature 71 °F 75 °F  
Max Temperature 80 °F 85 °F 106 °F (1936)
Min Temperature 61 °F 64 °F 48 °F (1890)
Degree Days  
Heating Degree Days 0 0  
Month to date heating degree days 0 0  
Since 1 June heating degree days 21 18  
Since 1 July heating degree days 5 1  
Cooling Degree Days 6 10  
Month to date cooling degree days 135 181  
Year to date cooling degree days 826 858  
Since 1 June cooling degree days 730 776  
Growing Degree Days 20 (Base 50)    
Moisture  
Dew Point 56 °F    
Average Humidity 66    
Maximum Humidity 90    
Minimum Humidity 42    
Precipitation  
Precipitation 0.00 in 0.13 in 2.33 in (1980)
Month to date precipitation 1.69 2.16  
Year to date precipitation 21.21 21.45  
Snow  
Snow 0.00 in 0.00 in - ()
Month to date snowfall 0.0 0.0  
Since 1 July snowfall 0.0 0.0  
Snow Depth 0.00 in    
Sea Level Pressure  
Sea Level Pressure 30.15 in    
Wind  
Wind Speed 7 mph (SE)    
Max Wind Speed 17 mph    
Max Gust Speed 24 mph    
Visibility 10 miles    
Events      
T = Trace of Precipitation, MM = Missing Value Source: NWS Daily Summary

Daily Weather History Graph

Daily Weather History Graph

Search for Another Location

Airport or City:

Trip Planner

Search our weather history database for the weather conditions in past years. The results will help you decide how hot, cold, wet, or windy it might be!

Date:

Astronomy

Aug. 17, 2013 Rise Set
Actual Time 6:35 AM CDT 8:19 PM CDT
Civil Twilight 6:05 AM CDT 8:48 PM CDT
Nautical Twilight 5:29 AM CDT 9:24 PM CDT
Astronomical Twilight 4:51 AM CDT 10:02 PM CDT
Moon 5:36 PM CDT (8/17) 2:38 AM CDT (8/17)
Length of Visible Light 14h 43m
Length of Day
13h 44m
Waxing Gibbous, 84% of the Moon is Illuminated
Aug 17
Waxing Gibbous
Aug 20
Full
Aug 28
Last Quarter
Sep 5
New
Sep 12
First Quarter

Hourly Weather History & Observations

Time (CDT) Temp. Dew Point Humidity Pressure Visibility Wind Dir Wind Speed Gust Speed Precip Events Conditions
12:52 AM 64.9 °F 61.0 °F 87% 30.17 in 10.0 mi Calm Calm - N/A   Mostly Cloudy
1:52 AM 66.0 °F 59.0 °F 78% 30.16 in 10.0 mi ESE 3.5 mph - N/A   Mostly Cloudy
2:52 AM 64.0 °F 60.1 °F 87% 30.17 in 10.0 mi East 3.5 mph - N/A   Mostly Cloudy
3:52 AM 62.1 °F 57.0 °F 84% 30.17 in 10.0 mi SE 3.5 mph - N/A   Scattered Clouds
4:52 AM 64.0 °F 57.0 °F 78% 30.17 in 10.0 mi East 3.5 mph - N/A   Overcast
5:52 AM 63.0 °F 57.9 °F 84% 30.17 in 10.0 mi Calm Calm - N/A   Overcast
6:52 AM 63.0 °F 57.0 °F 81% 30.18 in 10.0 mi Calm Calm - N/A   Overcast
7:52 AM 66.0 °F 57.9 °F 75% 30.19 in 10.0 mi ESE 3.5 mph - N/A   Mostly Cloudy
8:52 AM 69.1 °F 57.0 °F 65% 30.19 in 10.0 mi SE 9.2 mph - N/A   Mostly Cloudy
9:52 AM 72.0 °F 55.9 °F 57% 30.19 in 10.0 mi SSE 11.5 mph - N/A   Scattered Clouds
10:52 AM 75.0 °F 53.1 °F 46% 30.19 in 10.0 mi South 12.7 mph - N/A   Scattered Clouds
11:52 AM 77.0 °F 54.0 °F 45% 30.18 in 10.0 mi SSE 12.7 mph - N/A   Partly Cloudy
12:52 PM 77.0 °F 53.1 °F 43% 30.17 in 10.0 mi South 13.8 mph - N/A   Partly Cloudy
1:52 PM 78.1 °F 54.0 °F 43% 30.16 in 10.0 mi South 10.4 mph - N/A   Partly Cloudy
2:52 PM 78.1 °F 53.1 °F 42% 30.14 in 10.0 mi South 10.4 mph 18.4 mph N/A   Scattered Clouds
3:52 PM 79.0 °F 54.0 °F 42% 30.13 in 10.0 mi SSE 13.8 mph 17.3 mph N/A   Scattered Clouds
4:52 PM 78.1 °F 55.0 °F 45% 30.12 in 10.0 mi SE 11.5 mph - N/A   Scattered Clouds
5:52 PM 77.0 °F 55.0 °F 47% 30.11 in 10.0 mi SSE 10.4 mph - N/A   Scattered Clouds
6:52 PM 75.9 °F 55.0 °F 48% 30.11 in 10.0 mi SE 10.4 mph - N/A   Partly Cloudy
7:52 PM 75.9 °F 54.0 °F 46% 30.11 in 10.0 mi South 8.1 mph - N/A   Partly Cloudy
8:52 PM 71.1 °F 55.9 °F 59% 30.11 in 10.0 mi ESE 3.5 mph - N/A   Clear
9:52 PM 68.0 °F 55.9 °F 65% 30.12 in 10.0 mi ESE 3.5 mph - N/A   Clear
10:52 PM 66.0 °F 57.0 °F 73% 30.12 in 10.0 mi Calm Calm - N/A   Clear
11:52 PM 61.0 °F 57.9 °F 90% 30.13 in 10.0 mi Calm Calm - N/A   Clear